Hourly Data Report for October 31, 2012

All times are specified in Local Standard Time (LST). Add 1 hour to adjust for Daylight Saving Time where and when it is observed.

ST LEONARD CS
NEW BRUNSWICK

47°09'28.050" N
67°49'55.014" W
245.00 m
810I001
71019
WIY

Download Data

Hourly Data (October 2012)
Hourly Data Report for October 31, 2012
Temp Definition
°C
Dew Point Temp Definition
°C
Rel Hum Definition
%
Wind Dir Definition
10's deg

Wind Spd Definition
km/h
Visibility Definition
km
Stn Press Definition
kPa
Hmdx Definition


Wind Chill Definition


Weather Definition


TIME
00:00 12.8 11.5 92 8 17   98.18     LegendNANA
01:00 12.5 11.3 92 7 11   98.06     LegendNANA
02:00 12.5 11.2 92 9 13   98.08     LegendNANA
03:00 12.3 11.5 95 9 13   98.08     LegendNANA
04:00 12.6 11.8 95 9 20   97.95     LegendNANA
05:00 12.5 11.5 94 9 15   97.87     LegendNANA
06:00 12.4 11.5 94 9 19   97.80     LegendNANA
07:00 13.0 12.1 94 10 19   97.72     LegendNANA
08:00 14.1 13.3 95 10 24   97.64     LegendNANA
09:00 13.8 12.5 92 9 26   97.52     LegendNANA
10:00 14.1 12.5 90 10 19   97.56     LegendNANA
11:00 14.7 13.0 90 11 11   97.56     LegendNANA
12:00 15.7 13.5 87 12 19   97.50     LegendNANA
13:00 15.9 13.2 84 12 19   97.47     LegendNANA
14:00 16.0 13.1 83 10 15   97.40     LegendNANA
15:00 15.7 13.1 85 10 15   97.40     LegendNANA
16:00 14.6 13.4 93 11 15   97.36     LegendNANA
17:00 14.5 13.4 93 10 13   97.33     LegendNANA
18:00 14.3 13.5 95 9 11   97.31     LegendNANA
19:00 13.9 13.2 96 9 9   97.28     LegendNANA
20:00 13.7 13.0 96 9 9   97.22     LegendNANA
21:00 13.8 13.0 95 9 11   97.16     LegendNANA
22:00 13.8 13.0 95 10 11   97.08     LegendNANA
23:00 13.8 13.1 96 9 9   97.02     LegendNANA

Notes on Data Quality.

Legend

  • E = Estimated
  • M = Missing
  • NA = Not Available
  • ‡ = Partner data that is not subject to review by the National Climate Archives
Date modified: